Location: Córrego Montividiu
(13.2496°S, 48.8603°W)
Time: 18:47:37
(UTC+00:00)

GPS 2-17 Rocket1 - Pass Details

Date: 11 March 2026
Orbit: 544 x 614 km, 20.3° (Epoch: 17 April)

Event Time Altitude Azimuth Distance (km) Brightness Sun altitude
Rises 22:08:29 0° 304° (NW) 2,697 7.2 -9.7°
Reaches altitude 10° 22:10:52 10° 312° (NW) 1,800 6.1 -10.3°
Maximum altitude 22:14:45 37° 20° (NNE) 847 3.5 -11.2°
Enters shadow 22:17:26 17° 80° (E) 1,387 4.2 -11.8°
